"Pseudo-MPEC" for P2165ik

Created 2020 Sep 17 14:07:49 UT using Find_Orb

Click here for an explanation of pseudo-MPECs

 
 Astrometry: 
     P2165ik  C2020 09 14.'n(3y#oOMPZAstrometrykY*8ti3_kG?g)+ykly:(3m_(vg2W2FF52
     P2165ik  C2020 09 14;J@*]YO*Rh]oHNh:NhU0UHo^E\JVopredacted;KsjU1I_oU!]8KF52
     P2165ik  C2020 09 14,g9o'/%\XNtWey34o^a:mr=Rhs.%eYe,rclick@!SOZi-cdN=QfiF52
     P2165ik  C2020 09 16#Z]vx5KCw6V=CN]x[2YhereKtvi8$`j@LYC-ps_`k0)iF:`ChCBJF52
     P2165ik  C2020 09 16UUO)QrBUXfu^ErEpl^V7n9ZoS@8BcZFs5OfGDAY0p=0fori=Z5!6F52
     P2165ik  C2020 09 16pOae)'W%E8%rMTNn!siZ]`QG)n'JqD@G__*A/@.486Bf*C9sWQ3.F52
     P2165ik pC2020 09 17xWZ4'Q3!Rr:\90kY?YKU!8_x+2/\Fr5OIQ0de-6%i*i5=.nicJ[fL01
     P2165ik pC2020 09 1752I5*^+3a\wabnkA8u0M8?u[\y_)Nh,=rDH++_\F_Do*e-%O4rn/L01
     P2165ik pC2020 09 17S+cJj?-r-m5%77dvvFv6Dk@cR8fLaP%l9)6Xj.e]wDN4bJ1bGG,lL01
     P2165ik KC2020 09 17AoEA-1mn;M:.0Pf!^+^5)3JE7[-^\9Q#.PypaFWsYe*c,_kC7u0aH21
     P2165ik KC2020 09 17@HvN`2Ak6*Ai]5r:c+%Go1,q#O.R`JLbFHYv:I[lZr'R2D^lkSWwH21
     P2165ik KC2020 09 17$ZM2fg69O]mQpikso'?)y\fEtX6'54+J;q6\.OeEw;f.h6i-?h-UH21
     P2165ik IC2020 09 17TROfCV1;L3.AFsfC5[cw#yfds/qN=$X*!h`2*f^q\F8\sX%bmC`p711
     P2165ik KC2020 09 17vZoi+x-cVkdx+P(explanationq4y-4kj-#IJpl0@ijT84:6A#Ff711
     P2165ik KC2020 09 17BEqr'Ba')uLs]PC-iqu2;OKOiaJG.6C-ao4]Vog,B`iL]P'G!9b+711

Station data:
(711) McDonald Observatory, Fort Davis  (N30.671481 W104.021500)  US/Texas.
   0.76-m f/3.0 reflector.
(F52) Pan-STARRS 2, Haleakala  (N20.707384 W156.255910)  US/Hawaii. 1.8-m
   Ritchey-Chrétien + CCD.
(H21) Astronomical Research Observatory, Westfield  (N39.483057 W87.968270)
   US/Illinois. 0.76-m f/3.0 astrograph + CCD.
(L01) Višnjan Observatory, Tičan  (N45.290900 E13.749300)  Croatia.
   Observers K. Korlević, E. Pettarin. Measurer E. Pettarin. 1.0-m f/2.9
   reflector + CCD.

Orbital elements:  P2165ik
   Perihelion 2020 Jun 12.334499 +/- 0.268 TT =  8:01:40 (JD 2459012.834499)
Epoch 2020 Sep 17.0 TT = JDT 2459109.5   Earth MOID: 0.0178   AutoNEOCP
M  89.57456802 +/- 0.31             (J2000 ecliptic)
n   0.92664463 +/- 0.000694         Peri.  272.14540 +/- 0.23
a   1.04198285 +/- 0.00052          Node   345.93469 +/- 0.013
e   0.0688114 +/- 0.000616          Incl.    4.16964 +/- 0.024
P   1.06/388.49d           H 26.6   G  0.15   U  7.9  
q 0.97028246 +/- 0.000175    Q 1.11368323 +/- 0.00119
From 15 observations 2020 Sept. 14-17; mean residual 0".43
Residuals in arcseconds: 
200914 F52  .52+  .15-    200916 F52  .19-  .09-    200917 H21  .08-  .43-    
200914 F52  .22-  .19+    200917 L01  .27-  .88+    200917 H21  .72+  .93-    
200914 F52  .28-  .02-    200917 L01  1.1+  .04+    200917 711  .00   .10-    
200916 F52  .02+  .21-    200917 L01  .28-  .17-    200917 711  .56-  .81+    
200916 F52  .15-  .02+    200917 H21  .09+  .15+    200917 711  .45-  .01-    

Ephemerides (geocentric):
Date (UTC) HH   RA              Dec         delta   r     elong  mag " sig PA
---- -- -- --  -------------   -----------  ------ ------ -----  --- ---- ---
2020 09 17 14  00 56 02.685   +23 16 27.15  .04882 1.0470 148.8 21.5 .507 157
2020 09 17 15  00 55 47.749   +23 18 01.00  .04886 1.0471 148.8 21.5 .550 153
2020 09 17 16  00 55 32.829   +23 19 34.48  .04890 1.0471 148.9 21.5 .596 150
2020 09 17 17  00 55 17.923   +23 21 07.60  .04895 1.0472 148.9 21.5 .644 147
2020 09 17 18  00 55 03.033   +23 22 40.35  .04899 1.0472 149.0 21.5 .695 145
2020 09 17 19  00 54 48.158   +23 24 12.73  .04904 1.0473 149.0 21.5 .748 143
2020 09 17 20  00 54 33.299   +23 25 44.75  .04908 1.0473 149.1 21.5 .803 141
2020 09 17 21  00 54 18.456   +23 27 16.41  .04913 1.0474 149.1 21.5 .859 139
2020 09 17 22  00 54 03.627   +23 28 47.70  .04917 1.0474 149.2 21.5 .918 137
2020 09 17 23  00 53 48.815   +23 30 18.63  .04922 1.0475 149.2 21.5 .978 136
2020 09 18 00  00 53 34.018   +23 31 49.20  .04926 1.0475 149.3 21.5 1.04 135
2020 09 18 01  00 53 19.238   +23 33 19.41  .04931 1.0476 149.3 21.5 1.10 134
2020 09 18 02  00 53 04.472   +23 34 49.26  .04935 1.0476 149.4 21.5 1.17 133
2020 09 18 03  00 52 49.723   +23 36 18.74  .04940 1.0477 149.4 21.5 1.23 132
2020 09 18 04  00 52 34.990   +23 37 47.87  .04944 1.0477 149.5 21.5 1.30 131
2020 09 18 05  00 52 20.273   +23 39 16.64  .04949 1.0478 149.5 21.5 1.37 130
2020 09 18 06  00 52 05.572   +23 40 45.04  .04954 1.0478 149.6 21.5 1.44 129
2020 09 18 07  00 51 50.887   +23 42 13.09  .04958 1.0479 149.6 21.5 1.51 128
2020 09 18 08  00 51 36.218   +23 43 40.78  .04963 1.0479 149.7 21.5 1.58 128
2020 09 18 09  00 51 21.566   +23 45 08.12  .04967 1.0480 149.7 21.5 1.65 127
2020 09 18 10  00 51 06.929   +23 46 35.09  .04972 1.0480 149.7 21.5 1.73 127
2020 09 18 11  00 50 52.310   +23 48 01.71  .04976 1.0481 149.8 21.5 1.80 126
2020 09 18 12  00 50 37.706   +23 49 27.98  .04981 1.0481 149.8 21.5 1.88 126
2020 09 18 13  00 50 23.119   +23 50 53.89  .04986 1.0481 149.9 21.5 1.96 125
2020 09 18 14  00 50 08.549   +23 52 19.44  .04990 1.0482 149.9 21.5 2.04 125
2020 09 18 15  00 49 53.995   +23 53 44.65  .04995 1.0482 150.0 21.5 2.12 124
2020 09 18 16  00 49 39.458   +23 55 09.49  .05000 1.0483 150.0 21.5 2.20 124
2020 09 18 17  00 49 24.937   +23 56 33.99  .05004 1.0483 150.1 21.5 2.28 123
2020 09 18 18  00 49 10.433   +23 57 58.13  .05009 1.0484 150.1 21.5 2.36 123
2020 09 18 19  00 48 55.946   +23 59 21.93  .05014 1.0484 150.1 21.5 2.45 123
2020 09 18 20  00 48 41.476   +24 00 45.37  .05018 1.0485 150.2 21.5 2.53 122
2020 09 18 21  00 48 27.023   +24 02 08.46  .05023 1.0485 150.2 21.5 2.62 122
2020 09 18 22  00 48 12.587   +24 03 31.20  .05028 1.0486 150.3 21.5 2.70 122
2020 09 18 23  00 47 58.168   +24 04 53.59  .05032 1.0486 150.3 21.5 2.79 121
2020 09 19 00  00 47 43.765   +24 06 15.63  .05037 1.0487 150.4 21.5 2.88 121
2020 09 19 01  00 47 29.380   +24 07 37.33  .05042 1.0487 150.4 21.5 2.97 121
2020 09 19 02  00 47 15.013   +24 08 58.68  .05047 1.0488 150.4 21.5 3.06 121
2020 09 19 03  00 47 00.662   +24 10 19.68  .05051 1.0488 150.5 21.5 3.15 120
2020 09 19 04  00 46 46.329   +24 11 40.33  .05056 1.0489 150.5 21.5 3.25 120
2020 09 19 05  00 46 32.013   +24 13 00.64  .05061 1.0489 150.6 21.5 3.34 120
2020 09 19 06  00 46 17.714   +24 14 20.61  .05066 1.0490 150.6 21.5 3.44 120
2020 09 19 07  00 46 03.433   +24 15 40.23  .05070 1.0490 150.7 21.5 3.53 119
2020 09 19 08  00 45 49.170   +24 16 59.51  .05075 1.0491 150.7 21.5 3.63 119
2020 09 19 09  00 45 34.923   +24 18 18.44  .05080 1.0491 150.7 21.5 3.73 119
2020 09 19 10  00 45 20.695   +24 19 37.03  .05085 1.0491 150.8 21.5 3.82 119
2020 09 19 11  00 45 06.484   +24 20 55.28  .05090 1.0492 150.8 21.5 3.92 119
2020 09 19 12  00 44 52.291   +24 22 13.19  .05095 1.0492 150.9 21.5 4.02 118
2020 09 19 13  00 44 38.116   +24 23 30.76  .05099 1.0493 150.9 21.5 4.13 118